Overview Statistics Trail Chart Weather Telemetry Raw packets
 

This is the latest recevied weather packets stored in our database for station/object N7WSS. If no packets are shown the sender has not sent any weather packets the latest 10 day(s).

<< 49 50 51 52 53 54 55 >>
Time Temp. Humidity Pressure Rain* Wind** Luminosity Snow
1788299361 33.89° C 37% 1014.3 hPa 0 mm - - -
1788299060 33.33° C 39% 1014.2 hPa 0 mm - - -
1788298760 33.33° C 38% 1014.1 hPa 0 mm - - -
1788298455 32.78° C 38% 1014.3 hPa 0 mm - - -
1788298154 33.33° C 38% 1014.3 hPa 0 mm - - -
1788297849 33.89° C 38% 1014.3 hPa 0 mm - - -
1788297546 33.33° C 38% 1014.4 hPa 0 mm - - -
1788297241 32.78° C 39% 1014.3 hPa 0 mm - - -
1788296937 33.33° C 40% 1014.4 hPa 0 mm - - -
1788296632 32.78° C 39% 1014.5 hPa 0 mm - - -
1788296329 32.78° C 39% 1014.7 hPa 0 mm - - -
1788296023 33.33° C 38% 1014.8 hPa 0 mm - - -
1788295718 33.33° C 39% 1014.8 hPa 0 mm - - -
1788295415 32.22° C 39% 1015 hPa 0 mm - - -
1788295109 33.33° C 38% 1015.1 hPa 0 mm - - -
1788294809 33.33° C 38% 1015.1 hPa 0 mm - - -
1788294504 33.33° C 39% 1015.1 hPa 0 mm - - -
1788294198 32.78° C 39% 1015.4 hPa 0 mm - - -
1788293895 33.33° C 40% 1015.2 hPa 0 mm - - -
1788293594 33.33° C 40% 1015.1 hPa 0 mm - - -
1788293288 32.78° C 40% 1015.4 hPa 0 mm - - -
1788292984 32.78° C 38% 1015.3 hPa 0 mm - - -
1788292682 32.78° C 40% 1015.4 hPa 0 mm - - -
1788292381 32.22° C 41% 1015.4 hPa 0 mm - - -
1788292077 32.78° C 41% 1015.6 hPa 0 mm - - -

* Rain latest hour (hover to see other rain measurements)
** Current wind speed in m/s (hover to see current wind gust speed)